Regional Weather Roundup
Issued by NWS

Home | Current Version | Previous Version | Text Only | Print | Product List | Glossary On
Versions: 1 2 3 4 5 6 7 8 9 10 11 12 13 14 15 16 17 18 19 20 21 22 23 24 25 26 27 28 29 30 31 32 33 34 35 36 37 38 39 40 41 42 43 44 45 46 47 48 49 50
000
ASUS43 KDTX 301601
RWRMI
MICHIGAN HOURLY REGIONAL WEATHER ROUNDUP
NATIONAL WEATHER SERVICE DETROIT/PONTIAC MI
1200 PM EDT SAT MAY 30 2015

NOTE: "FAIR" INDICATES FEW OR NO CLOUDS BELOW 12,000 FEET WITH NO
SIGNIFICANT WEATHER AND/OR OBSTRUCTION TO VISIBILITY.

MIZ047>049-052>055-059>063-066>070-074>076-081>083-301700-
SOUTHEAST LOWER MICHIGAN

CITY           SKY/WX    TMP DP  RH WIND       PRES   REMARKS
ADRIAN         PTSUNNY   79  65  62 W12G20    30.01F
ALMA           CLOUDY    69  66  90 CALM      29.99S
ANN ARBOR      CLOUDY    76  67  73 W13       29.99S
BAD AXE        CLOUDY    65  62  90 NE9       30.00R
CARO           LGT RAIN  70  68  92 NW6       29.98S
DETROIT CITY   MOSUNNY   81  67  62 SW9G17    29.97F
DETROIT        PTSUNNY   82  66  58 S16       29.98F
FLINT          CLOUDY    74  68  81 SW7       29.98F
GROSSE ILE     MOSUNNY   81  68  65 SW13G20   29.97F
HILLSDALE      PTSUNNY   77  66  69 SW7       30.02S
HOWELL         PTSUNNY   72  69  91 SW9       30.00S

CITY           SKY/WX    TMP DP  RH WIND       PRES   REMARKS
JACKSON        LGT RAIN  74  68  81 W8        30.01R
LAMBERTVILLE   CLOUDY    81  66  61 SW6       30.00F
LANSING        CLOUDY    72  67  84 SW12      30.00R
LAPEER         RAIN      72  66  81 W6        29.98S
MASON          CLOUDY    70  66  87 SW6       30.00S
MONROE         PTSUNNY   81  66  61 SW13      29.98F
MT. CLEMENS    PTSUNNY   83  67  59 SW8       29.94F
PONTIAC        TSTM      68  66  93 W10G28    30.00R VSB 1
PORT HOPE        N/A     57  56  96 NE6       30.01R
PORT HURON     PTSUNNY   79  68  69 S8        29.97F
TRI CITIES     LGT RAIN  69  64  84 N13       29.99S
MIDLAND        DRIZZLE   66  63  90 N6        29.99S
TROY           CLOUDY    79  67  68 SW5       29.99F
SAGINAW HB     LGT RAIN  70  70 100 NW6       29.98F
$$
MIZ043>046-050>051-056>058-064>065-071>073-077>080-301700-
SOUTHWEST LOWER MICHIGAN

CITY           SKY/WX    TMP DP  RH WIND       PRES   REMARKS
BATTLE CREEK   LGT RAIN  72  66  81 SW6       30.01S
BENTON HARBOR  LGT RAIN  69  67  93 W9        30.00S
BIG RAPIDS     LGT RAIN  58  55  88 N10G16    30.01S
COLDWATER      CLOUDY    73  65  77 CALM      30.01S
FREMONT        RAIN      60  59  96 N9        30.01R
HOLLAND        LGT RAIN  67  64  90 SW6       30.00R
GRAND RAPIDS   LGT RAIN  68  66  93 W7        30.00R
IONIA          LGT RAIN  69  67  92 SW6       29.99R
KALAMAZOO      CLOUDY    72  65  78 SW5       30.01S
LUDINGTON      RAIN      52  49  91 NE6       30.06R
MARSHALL       CLOUDY    72  67  84 W3        30.00S
MOUNT PLEASANT DRIZZLE   64  61  91 N7        30.00R
MUSKEGON       LGT RAIN  64  60  87 E5        30.00R
SOUTH HAVEN    RAIN      69  66  91 W7        30.00S
$$
MIZ016>042-301700-
NORTHERN LOWER MICHIGAN

CITY           SKY/WX    TMP DP  RH WIND       PRES   REMARKS
ALPENA         LGT RAIN  56  53  90 NW12      30.04R
BEAVER ISLAND  CLOUDY    51  43  74 N7        30.12R
BELLAIRE       MIX PCPN  50  47  92 N3        30.10R
CADILLAC       RAIN      51  49  93 N7        30.06R
CHARLEVOIX     DRIZZLE   47  46  97 N6        30.14R
FRANKFORT      LGT RAIN  50  44  81 N5        30.11R
GAYLORD        RAIN      51  51 100 VRB5      30.08R FOG
GRAYLING       LGT RAIN  53  51  92 NW8       30.07R
HARBOR SPRINGS LGT RAIN  50  48  90 CALM      30.10R
HOUGHTON LAKE  LGT RAIN  56  53  90 N9        30.05R
MANISTEE       CLOUDY    52  46  82 NE8       30.08S
OSCODA         RAIN      62  60  94 N9        30.01R
PELLSTON       CLOUDY    53  46  77 N8        30.10R
ROGERS CITY    LGT RAIN  52  49  91 NW10G18   30.07R
TRAVERSE CITY  LGT RAIN  49  46  90 N10       30.09R
$$
MIZ007>008-015-301700-
EASTERN UPPER MICHIGAN

CITY           SKY/WX    TMP DP  RH WIND       PRES   REMARKS
KINROSS        CLOUDY    50  45  81 N17G23    30.07R
MACKINAC ISLAN CLOUDY    51  48  87 N12       30.08R
NEWBERRY       PTSUNNY   50  40  68 N14G22    30.12R
S. S. MARIE    CLOUDY    56  46  69 NW9       30.06R
$$
MIZ004>006-011>014-085-301700-
CENTRAL UPPER MICHIGAN

CITY           SKY/WX    TMP DP  RH WIND       PRES   REMARKS
MANISTIQUE     CLOUDY    53  41  64 N13G21    30.13R
ESCANABA       CLOUDY    52  37  58 N16G24    30.16R
MENOMINEE      CLOUDY    52  39  62 NE15G21   30.15R
SAWYER-GWINN   CLOUDY    43  36  75 N25       30.20R
$$
MIZ001>003-009>011-084-301700-
WESTERN UPPER MICHIGAN

CITY           SKY/WX    TMP DP  RH WIND       PRES   REMARKS
IRON MOUNTAIN  CLOUDY    52  42  69 N14G24    30.17R
HOUGHTON       PTSUNNY   45  34  65 N16G24    30.24R
COPPER HARBOR    N/A     41  34  76 N14G23    30.26R
IRONWOOD       CLOUDY    43  37  81 N8        30.24R
$$

ABBREVIATIONS USED IN REMARKS
   TC - TEMPERATURE IN CELSIUS
  WCI - WIND CHILL INDEX
   HX - HEAT INDEX
  VSB - VISIBILITY




USA.gov is the U.S. government's official web portal to all federal, state and local government web resources and services.